Amarillo, TX

8:11 PM CDT on September 16, 2019 (GMT -0500)
Amarillo International

Weather History for KAMA - May, 2019

Change the Weather History Date:

Saturday, May 11, 2019

  Actual Average Record
Temperature  
Mean Temperature 53 °F 64 °F  
Max Temperature 63 °F 78 °F 99 °F (1962)
Min Temperature 43 °F 50 °F 34 °F (1946)
Degree Days  
Heating Degree Days 12 3  
Month to date heating degree days 83 46  
Since 1 July heating degree days 4066 4134  
Cooling Degree Days 0 2  
Month to date cooling degree days 7 20  
Year to date cooling degree days 23 41  
Growing Degree Days 3 (Base 50)    
Moisture  
Dew Point 43 °F    
Average Humidity 76    
Maximum Humidity 96    
Minimum Humidity 55    
Precipitation  
Precipitation 0.00 in 0.07 in 1.66 in (1897)
Month to date precipitation 1.35 0.60  
Year to date precipitation 5.44 4.67  
Snow  
Snow 0.00 in 0.00 in T in (2016)
Month to date snowfall 0.0 0.2  
Since 1 July snowfall 8.1 17.8  
Snow Depth 0.00 in    
Sea Level Pressure  
Sea Level Pressure 29.95 in    
Wind  
Wind Speed 6 mph (SW)    
Max Wind Speed 12 mph    
Max Gust Speed 18 mph    
Visibility 9 miles    
Events      
T = Trace of Precipitation, MM = Missing Value Source: NWS Daily Summary

Daily Weather History Graph

Daily Weather History Graph

Search for Another Location

Airport or City:

Astronomy

May. 11, 2019 Rise Set
Actual Time 6:46 AM CDT 8:40 PM CDT
Civil Twilight 6:18 AM CDT 9:08 PM CDT
Nautical Twilight 5:44 AM CDT 9:42 PM CDT
Astronomical Twilight 5:08 AM CDT 10:18 PM CDT
Moon 12:57 PM CDT (5/11) 2:22 AM CDT (5/11)
Length of Visible Light 14h 50m
Length of Day
13h 54m
Waxing Crescent, 46% of the Moon is Illuminated
May 11
Waxing Crescent
May 11
First Quarter
May 18
Full
May 26
Last Quarter
Jun 3
New

Hourly Weather History & Observations

Time (CDT) Temp. Windchill Dew Point Humidity Pressure Visibility Wind Dir Wind Speed Gust Speed Precip Events Conditions
12:28 AM 44.1 °F 39.5 °F 42.1 °F 93% 30.07 in 6.0 mi SE 8.1 mph - N/A   Overcast
12:53 AM 44.1 °F 39.5 °F 42.1 °F 93% 30.05 in 5.0 mi SSE 8.1 mph - N/A   Overcast
1:02 AM 44.1 °F 40.1 °F 42.1 °F 93% 30.08 in 5.0 mi SSE 6.9 mph - N/A   Overcast
1:11 AM 44.1 °F 40.8 °F 42.1 °F 93% 30.07 in 5.0 mi SSE 5.8 mph - N/A   Overcast
1:53 AM 44.1 °F 41.5 °F 42.1 °F 93% 30.04 in 6.0 mi South 4.6 mph - N/A   Overcast
2:06 AM 44.1 °F 41.5 °F 42.1 °F 93% 30.05 in 8.0 mi South 4.6 mph - N/A   Overcast
2:13 AM 44.1 °F 41.5 °F 42.1 °F 93% 30.05 in 8.0 mi South 4.6 mph - N/A   Overcast
2:53 AM 44.1 °F 40.8 °F 42.1 °F 93% 30.01 in 5.0 mi SSW 5.8 mph - N/A   Overcast
3:07 AM 44.1 °F 41.5 °F 42.1 °F 93% 30.04 in 6.0 mi SW 4.6 mph - N/A   Overcast
3:17 AM 44.1 °F 42.5 °F 42.1 °F 93% 30.03 in 6.0 mi SW 3.5 mph - N/A   Overcast
3:30 AM 44.1 °F 42.5 °F 42.1 °F 93% 30.02 in 10.0 mi SW 3.5 mph - N/A   Overcast
3:39 AM 44.1 °F 42.5 °F 42.1 °F 93% 30.02 in 10.0 mi WSW 3.5 mph - N/A   Overcast
3:53 AM 43.0 °F 40.3 °F 41.0 °F 93% 29.99 in 10.0 mi SSW 4.6 mph - N/A   Overcast
4:07 AM 43.0 °F 41.3 °F 41.0 °F 93% 30.01 in 10.0 mi West 3.5 mph - N/A   Overcast
4:53 AM 44.1 °F - 42.1 °F 93% 29.98 in 10.0 mi Calm Calm - N/A   Overcast
5:10 AM 44.1 °F 42.5 °F 42.1 °F 93% 30.00 in 10.0 mi WNW 3.5 mph - N/A   Overcast
5:53 AM 44.1 °F 41.5 °F 41.0 °F 89% 29.98 in 10.0 mi WSW 4.6 mph - N/A   Overcast
6:33 AM 44.1 °F 40.8 °F 41.0 °F 89% 29.99 in 10.0 mi West 5.8 mph - N/A   Overcast
6:53 AM 44.1 °F 42.5 °F 42.1 °F 93% 29.97 in 10.0 mi West 3.5 mph - N/A   Overcast
7:26 AM 45.0 °F 42.6 °F 42.1 °F 90% 30.00 in 10.0 mi WSW 4.6 mph - N/A   Overcast
7:53 AM 45.0 °F 43.5 °F 42.1 °F 90% 29.97 in 10.0 mi WSW 3.5 mph - N/A   Overcast
8:14 AM 45.0 °F 42.6 °F 42.1 °F 90% 29.99 in 10.0 mi West 4.6 mph - N/A   Mostly Cloudy
8:26 AM 46.9 °F - 43.0 °F 86% 29.99 in 10.0 mi West 5.8 mph - N/A   Mostly Cloudy
8:53 AM 48.0 °F - 43.0 °F 83% 29.95 in 10.0 mi WNW 8.1 mph - N/A   Partly Cloudy
9:53 AM 52.0 °F - 44.1 °F 74% 29.94 in 10.0 mi WNW 9.2 mph - N/A   Partly Cloudy
10:53 AM 54.0 °F - 44.1 °F 69% 29.94 in 10.0 mi WNW 11.5 mph - N/A   Scattered Clouds
11:09 AM 54.0 °F - 44.1 °F 69% 29.98 in 10.0 mi West 9.2 mph - N/A   Mostly Cloudy
11:53 AM 55.9 °F - 43.0 °F 62% 29.92 in 10.0 mi WSW 8.1 mph - N/A   Overcast
12:39 PM 55.9 °F - 43.0 °F 62% 29.96 in 10.0 mi West 5.8 mph - N/A   Overcast
12:53 PM 57.9 °F - 44.1 °F 60% 29.90 in 10.0 mi WNW 6.9 mph - N/A   Overcast
1:53 PM 57.9 °F - 44.1 °F 60% 29.88 in 10.0 mi South 5.8 mph - N/A   Overcast
2:53 PM 60.1 °F - 44.1 °F 55% 29.86 in 10.0 mi Variable 4.6 mph - N/A   Overcast
3:53 PM 61.0 °F - 44.1 °F 54% 29.84 in 10.0 mi WNW 3.5 mph - N/A   Overcast
4:53 PM 61.0 °F - 46.0 °F 58% 29.82 in 10.0 mi Calm Calm - N/A   Overcast
5:53 PM 62.1 °F - 46.0 °F 56% 29.81 in 10.0 mi SE 5.8 mph - N/A   Scattered Clouds
6:53 PM 62.1 °F - 46.0 °F 56% 29.81 in 10.0 mi South 3.5 mph - N/A   Partly Cloudy
7:53 PM 60.1 °F - 46.0 °F 60% 29.82 in 10.0 mi SSE 5.8 mph - N/A   Clear
8:53 PM 55.0 °F - 46.0 °F 72% 29.84 in 10.0 mi SSE 5.8 mph - N/A   Clear
9:53 PM 54.0 °F - 46.0 °F 75% 29.85 in 10.0 mi SSE 8.1 mph - N/A   Clear
10:53 PM 52.0 °F - 46.0 °F 80% 29.87 in 10.0 mi SSE 10.4 mph - N/A   Clear
11:53 PM 52.0 °F - 45.0 °F 77% 29.87 in 10.0 mi South 10.4 mph - N/A   Clear